Home   Weather   Lahore   Past weeks

Flag for Pakistan Past Weather in Lahore, Pakistan — Yesterday and Last 2 Weeks

Now
88 °F

Passing clouds.


Feels Like: 98 °F
Forecast: 80 / 94 °F
Wind: 5 mph from East

Location: Lahore Airport

Current Time: Aug 30, 2016 at 8:12:34 PM

Latest Report: Aug 30, 2016 at 7:25 PM


Visibility: 3 mi

Pressure: 29.59 "Hg

Humidity: 66%

Dew Point: 75 °F

Location of LahoreLocation

Past Weather in Lahore — Graph

°F

Lahore Temperature Yesterday

Maximum temperature yesterday: 91 °F (at 12:00 PM)
Minimum temperature yesterday: 79 °F (at 3:00 AM)
Average temperature yesterday: 82 °F

High & Low Weather Summary for the Past Weeks

 TemperatureHumidityPressure
High99 °F (Aug 19, 3:25 PM)100% (Aug 24, 12:25 PM)29.86 "Hg (Aug 24, 12:25 PM)
Low72 °F (Aug 25, 6:55 AM)26% (Aug 21, 4:59 PM)29.42 "Hg (Aug 16, 5:25 PM)
Average85 °F75%29.63 "Hg
* Reported Aug 15 6:55 PM — Aug 30 6:00 PM, Lahore, Weather by CustomWeather, © 2016

Note: Actual official high and low records may vary slightly from our data, if they occured in-between our weather recording intervals... More about our weather records

Advertising

Lahore Weather History for the Previous 24 Hours

Scroll right to see more
 ConditionsComfort  
Time TempWeatherWind HumidityBarometerVisibility
6:00 PM
Tue, Aug 30
90 °FScattered clouds.5 mph63%29.56 "Hg3 mi
5:30 PM91 °FScattered clouds.7 mph59%29.56 "Hg3 mi
5:00 PM91 °FScattered clouds.7 mph59%29.56 "Hg3 mi
4:30 PM91 °FScattered clouds.5 mph59%29.56 "Hg3 mi
4:00 PM91 °FScattered clouds.5 mph59%29.56 "Hg4 mi
3:25 PM93 °FScattered clouds.3 mph56%29.59 "Hg4 mi
2:55 PM93 °FScattered clouds.3 mph56%29.59 "Hg4 mi
2:30 PM91 °FScattered clouds.3 mph63%29.59 "Hg4 mi
2:00 PM91 °FScattered clouds.3 mph63%29.62 "Hg4 mi
1:30 PM90 °FScattered clouds.3 mph63%29.62 "Hg4 mi
1:00 PM90 °FScattered clouds.5 mph63%29.65 "Hg4 mi
12:30 PM90 °FScattered clouds.5 mph63%29.65 "Hg4 mi
11:55 AM91 °FScattered clouds.5 mph63%29.65 "Hg3 mi
11:25 AM88 °FScattered clouds.5 mph66%29.65 "Hg4 mi
10:55 AM88 °FPassing clouds.3 mph66%29.65 "Hg4 mi
9:55 AM86 °FClear.5 mph66%29.65 "Hg4 mi
9:25 AM84 °FClear.5 mph66%29.65 "Hg4 mi
8:55 AM82 °FClear.6 mph70%29.65 "Hg4 mi
8:25 AM81 °FClear.6 mph74%29.65 "Hg3 mi
7:55 AM79 °FPassing clouds.7 mph79%29.65 "Hg2 mi
7:25 AM79 °FFog.7 mph84%29.65 "Hg2 mi
6:55 AM79 °FFog.8 mph84%29.65 "Hg2 mi
5:55 AM77 °FFog.7 mph94%29.65 "Hg2 mi
4:55 AM79 °FPassing clouds.No wind89%29.62 "Hg2 mi
4:25 AM79 °FPassing clouds.No wind89%29.62 "Hg2 mi
3:55 AM79 °FPassing clouds.No wind89%29.62 "Hg2 mi
3:25 AM79 °FPassing clouds.5 mph89%29.62 "Hg2 mi
2:55 AM79 °FPassing clouds.3 mph89%29.62 "Hg2 mi
2:25 AM79 °FPassing clouds.3 mph89%29.62 "Hg2 mi
1:55 AM79 °FPassing clouds.No wind89%29.65 "Hg2 mi
1:25 AM81 °FPassing clouds.No wind84%29.65 "Hg2 mi
12:55 AM81 °FPassing clouds.No wind84%29.65 "Hg2 mi
12:25 AM81 °FPassing clouds.3 mph84%29.65 "Hg2 mi
11:55 PM
Mon, Aug 29
81 °FPassing clouds.3 mph84%29.65 "Hg2 mi
11:25 PM81 °FPassing clouds.5 mph84%29.68 "Hg2 mi
10:55 PM81 °FPassing clouds.5 mph84%29.68 "Hg2 mi
10:25 PM81 °FPassing clouds.6 mph84%29.65 "Hg2 mi
9:55 PM81 °FPassing clouds.6 mph84%29.68 "Hg2 mi
9:25 PM81 °FPassing clouds.3 mph84%29.68 "Hg2 mi
8:55 PM81 °FPassing clouds.No wind84%29.68 "Hg2 mi
8:25 PM79 °FPassing clouds.5 mph84%29.65 "Hg2 mi
Weather by CustomWeather, © 2016

See weather overviewHow to use our weather pages